Newport, VT

6:26 AM EDT on May 29, 2017 (GMT -0400)
Newport State

Weather History for KEFK - January, 2014

Change the Weather History Date:

Tuesday, January 21, 2014

  Actual Average Record
Temperature  
Mean Temperature -6 °F -  
Max Temperature 0 °F 25 °F 47 °F (1951)
Min Temperature -13 °F 1 °F -20 °F (1934)
Degree Days  
Heating Degree Days 72    
Moisture  
Dew Point -16 °F    
Average Humidity 62    
Maximum Humidity 72    
Minimum Humidity 49    
Precipitation  
Precipitation 0.00 in - - ()
Sea Level Pressure  
Sea Level Pressure 30.02 in    
Wind  
Wind Speed 4 mph (North)    
Max Wind Speed 10 mph    
Max Gust Speed 18 mph    
Visibility 10 miles    
Events Snow    
Averages and records for this station are not official NWS values.
T = Trace of Precipitation, MM = Missing Value Source: NWS Daily Summary

Daily Weather History Graph

Daily Weather History Graph

Search for Another Location

Airport or City:

Trip Planner

Search our weather history database for the weather conditions in past years. The results will help you decide how hot, cold, wet, or windy it might be!

Date:

Astronomy

Jan. 21, 2014 Rise Set
Actual Time 7:19 AM EST 4:41 PM EST
Civil Twilight 6:47 AM EST 5:13 PM EST
Nautical Twilight 6:11 AM EST 5:49 PM EST
Astronomical Twilight 5:36 AM EST 6:24 PM EST
Moon 10:28 PM EST (1/21) 9:32 AM EST (1/21)
Length of Visible Light 10h 26m
Length of Day
9h 22m
Waning Gibbous, 75% of the Moon is Illuminated
Jan 21
Waning Gibbous
Jan 24
Last Quarter
Jan 30
New
Feb 6
First Quarter
Feb 14
Full

Hourly Weather History & Observations

Time (EST) Temp. Windchill Dew Point Humidity Pressure Visibility Wind Dir Wind Speed Gust Speed Precip Events Conditions
12:15 AM -0.9 °F -17.4 °F -13.5 °F 55% 29.90 in 10.0 mi WNW 10.4 mph 18.4 mph N/A   Clear
12:35 AM -1.8 °F -9.9 °F -14.1 °F 56% 29.91 in 10.0 mi WSW 3.5 mph - N/A   Clear
12:55 AM -2.7 °F - -15.2 °F 55% 29.91 in 10.0 mi Calm Calm - N/A   Clear
1:15 AM -3.3 °F - -14.4 °F 59% 29.92 in 10.0 mi Calm Calm - N/A   Clear
1:35 AM -3.6 °F - -13.7 °F 62% 29.93 in 10.0 mi Calm Calm - N/A   Clear
1:55 AM -2.6 °F - -14.4 °F 57% 29.94 in 10.0 mi Calm Calm - N/A   Clear
2:15 AM -5.3 °F - -15.2 °F 62% 29.95 in 10.0 mi Calm Calm - N/A   Clear
2:35 AM -5.6 °F -16.5 °F -14.4 °F 66% 29.96 in 10.0 mi NNE 4.6 mph - N/A   Clear
2:55 AM -6.2 °F - -13.9 °F 69% 29.96 in 10.0 mi Calm Calm - N/A   Clear
3:15 AM -6.7 °F -17.7 °F -14.8 °F 68% 29.97 in 10.0 mi NNW 4.6 mph - N/A   Clear
3:35 AM -5.4 °F - -15.3 °F 62% 29.98 in 10.0 mi Calm Calm - N/A   Clear
3:55 AM -6.9 °F - -14.3 °F 70% 29.98 in 10.0 mi Calm Calm - N/A   Clear
4:15 AM -9.0 °F -20.4 °F -17.0 °F 68% 29.98 in 10.0 mi North 4.6 mph - N/A   Clear
4:35 AM -8.7 °F -23.4 °F -15.9 °F 71% 29.98 in 10.0 mi North 6.9 mph - N/A   Clear
4:55 AM -8.7 °F -20.0 °F -16.2 °F 69% 29.99 in 10.0 mi North 4.6 mph - N/A   Clear
5:15 AM -6.5 °F -19.3 °F -14.1 °F 70% 29.99 in 3.0 mi NW 5.8 mph - N/A Snow Light Snow
5:35 AM -6.5 °F -17.5 °F -14.3 °F 69% 29.99 in 3.0 mi NW 4.6 mph - N/A Snow Light Snow
5:55 AM -8.3 °F -19.6 °F -15.7 °F 70% 29.99 in 7.0 mi NNW 4.6 mph - N/A   Clear
6:15 AM -9.2 °F -22.5 °F -17.1 °F 68% 30.00 in 10.0 mi NNW 5.8 mph - N/A   Clear
6:35 AM -9.6 °F -22.9 °F -17.5 °F 68% 30.00 in 10.0 mi North 5.8 mph - N/A   Clear
6:55 AM -9.9 °F -21.5 °F -17.7 °F 69% 30.01 in 10.0 mi NW 4.6 mph - N/A   Clear
7:15 AM -11.9 °F - -19.1 °F 70% 30.03 in 10.0 mi Calm Calm - N/A   Clear
7:35 AM -13.9 °F - -21.8 °F 68% 30.04 in 10.0 mi Calm Calm - N/A   Clear
7:55 AM -10.7 °F - -17.3 °F 72% 30.04 in 10.0 mi Calm Calm - N/A   Clear
8:15 AM -11.6 °F - -19.5 °F 68% 30.03 in 10.0 mi Calm Calm - N/A   Clear
8:35 AM -10.1 °F - -17.5 °F 70% 30.05 in 10.0 mi Calm Calm - N/A   Clear
8:55 AM -8.0 °F - -16.6 °F 66% 30.06 in 10.0 mi Calm Calm - N/A   Clear
9:15 AM -7.8 °F - -16.6 °F 65% 30.06 in 10.0 mi Calm Calm - N/A   Clear
9:35 AM -6.7 °F - -16.8 °F 62% 30.04 in 10.0 mi Calm Calm - N/A   Clear
9:55 AM -6.2 °F - -16.6 °F 61% 30.05 in 10.0 mi Calm Calm - N/A   Clear
10:15 AM -4.5 °F - -16.2 °F 57% 30.05 in 10.0 mi Calm Calm - N/A   Clear
10:35 AM -3.8 °F - -16.4 °F 55% 30.06 in 10.0 mi Calm Calm - N/A   Clear
10:55 AM -3.6 °F - -17.0 °F 53% 30.05 in 10.0 mi Calm Calm - N/A   Clear
11:15 AM -4.0 °F - -17.0 °F 54% 30.05 in 10.0 mi Calm Calm - N/A   Clear
11:35 AM -2.0 °F -10.1 °F -15.9 °F 52% 30.04 in 10.0 mi East 3.5 mph - N/A   Clear
11:55 AM -2.4 °F - -15.9 °F 53% 30.04 in 10.0 mi Calm Calm - N/A   Clear
12:15 PM -1.5 °F - -15.2 °F 52% 30.04 in 10.0 mi Calm Calm - N/A   Clear
12:35 PM -1.5 °F -9.5 °F -15.7 °F 51% 30.04 in 10.0 mi NNE 3.5 mph - N/A   Clear
12:55 PM -0.4 °F - -15.0 °F 50% 30.04 in 10.0 mi Calm Calm - N/A   Clear
1:15 PM -0.2 °F - -15.2 °F 49% 30.04 in 10.0 mi Calm Calm - N/A   Clear
1:35 PM -0.4 °F -8.3 °F -14.8 °F 51% 30.04 in 10.0 mi North 3.5 mph - N/A   Clear
1:55 PM -0.0 °F -7.9 °F -14.4 °F 51% 30.04 in 10.0 mi North 3.5 mph - N/A   Clear
2:15 PM -0.0 °F -7.9 °F -14.6 °F 50% 30.04 in 10.0 mi North 3.5 mph - N/A   Clear
2:35 PM -0.4 °F -13.4 °F -14.6 °F 51% 30.04 in 10.0 mi NNE 6.9 mph - N/A   Clear
2:55 PM -0.2 °F -14.4 °F -14.3 °F 52% 30.04 in 10.0 mi North 8.1 mph - N/A   Clear
3:15 PM -0.9 °F -14.1 °F -14.8 °F 52% 30.04 in 10.0 mi North 6.9 mph - N/A   Clear
3:35 PM -0.8 °F -12.5 °F -14.8 °F 52% 30.04 in 10.0 mi North 5.8 mph - N/A   Clear
3:55 PM -1.1 °F -12.9 °F -14.8 °F 52% 30.04 in 10.0 mi North 5.8 mph - N/A   Clear
4:15 PM -1.5 °F -13.3 °F -14.8 °F 53% 30.04 in 10.0 mi North 5.8 mph - N/A   Clear
4:35 PM -2.2 °F -10.4 °F -15.2 °F 54% 30.03 in 10.0 mi NNW 3.5 mph - N/A   Clear
4:55 PM -2.7 °F -13.1 °F -15.2 °F 55% 30.02 in 10.0 mi NNW 4.6 mph - N/A   Clear
5:15 PM -4.7 °F -18.6 °F -16.2 °F 58% 30.01 in 10.0 mi North 6.9 mph - N/A   Clear
5:35 PM -3.6 °F -12.0 °F -14.6 °F 59% 30.02 in 10.0 mi North 3.5 mph - N/A   Clear
5:55 PM -4.2 °F -16.5 °F -15.0 °F 60% 30.03 in 10.0 mi North 5.8 mph - N/A   Clear
6:15 PM -4.5 °F -18.4 °F -15.5 °F 59% 30.04 in 10.0 mi North 6.9 mph - N/A   Clear
6:35 PM -5.3 °F -17.8 °F -15.9 °F 60% 30.04 in 10.0 mi North 5.8 mph - N/A   Clear
6:55 PM -6.7 °F -22.3 °F -17.0 °F 61% 30.04 in 10.0 mi North 8.1 mph - N/A   Clear
7:15 PM -6.2 °F -20.4 °F -16.6 °F 61% 30.04 in 10.0 mi North 6.9 mph - N/A   Clear
7:35 PM -7.2 °F -20.1 °F -16.6 °F 64% 30.05 in 10.0 mi North 5.8 mph - N/A   Clear
7:55 PM -8.5 °F -19.8 °F -17.3 °F 65% 30.06 in 10.0 mi North 4.6 mph - N/A   Clear
8:15 PM -8.1 °F -19.4 °F -16.6 °F 67% 30.07 in 10.0 mi NNW 4.6 mph - N/A   Clear
8:35 PM -7.2 °F - -15.7 °F 67% 30.07 in 10.0 mi Calm Calm - N/A   Clear
8:55 PM -8.9 °F - -15.9 °F 71% 30.07 in 10.0 mi Calm Calm - N/A   Clear
9:15 PM -10.7 °F -22.3 °F -18.4 °F 69% 30.06 in 10.0 mi North 4.6 mph - N/A   Clear
9:35 PM -10.5 °F -24.0 °F -18.6 °F 67% 30.07 in 10.0 mi NNW 5.8 mph - N/A   Clear
9:55 PM -9.4 °F -24.3 °F -17.9 °F 66% 30.06 in 10.0 mi NNW 6.9 mph - N/A   Clear
10:15 PM -10.1 °F -25.1 °F -18.4 °F 67% 30.06 in 10.0 mi NNW 6.9 mph - N/A   Clear
10:35 PM -10.7 °F -24.2 °F -19.1 °F 66% 30.05 in 10.0 mi NNW 5.8 mph - N/A   Clear
10:55 PM -12.3 °F - -20.0 °F 68% 30.05 in 10.0 mi Calm Calm - N/A   Clear
11:15 PM -12.6 °F -24.6 °F -19.3 °F 72% 30.04 in 10.0 mi NNW 4.6 mph - N/A   Clear
11:35 PM -11.9 °F -25.7 °F -19.3 °F 70% 30.04 in 10.0 mi North 5.8 mph - N/A   Clear
11:55 PM -13.9 °F -28.1 °F -21.3 °F 70% 30.02 in 10.0 mi North 5.8 mph - N/A   Clear